When you browse on this site, cookies collect data to enhance your experience and personalize the content and advertising you see.
Visit our Privacy Policy to learn more. By continuing to use the site, you agree to this use of cookies and data.
  • In Romania
  • List of Countries
  • For 7 days
  • Water Temperature
  • Weather Map
  • Weather Widgets
  • user-avatar
    Login

    Hourly Weather Rivas

    Today, 3 April, Friday

    Time Temperature Precipitation Wind Pressure Humidity
    00:00 +26°C° 0 mm 6 mps 751 mmHg 76%
    01:00 +26°C° 0 mm 6 mps 751 mmHg 77%
    02:00 +26°C° 0 mm 6 mps 751 mmHg 79%
    03:00 +26°C° 0 mm 6 mps 751 mmHg 80%
    04:00 +26°C° 0 mm 6 mps 751 mmHg 80%
    05:00 +26°C° 0 mm 6 mps 751 mmHg 81%
    06:00 +26°C° 0 mm 6 mps 751 mmHg 80%
    07:00 +27°C° 0 mm 7 mps 752 mmHg 74%
    08:00 +29°C° 0 mm 7 mps 753 mmHg 68%
    09:00 +31°C° 0 mm 8 mps 753 mmHg 62%
    10:00 +32°C° 0 mm 8 mps 752 mmHg 57%
    11:00 +33°C° 0 mm 7 mps 752 mmHg 52%
    12:00 +34°C° 0 mm 7 mps 751 mmHg 48%
    13:00 +35°C° 0 mm 7 mps 750 mmHg 44%
    14:00 +36°C° 0 mm 7 mps 750 mmHg 41%
    15:00 +38°C° 0 mm 6 mps 749 mmHg 38%
    16:00 +35°C° 0 mm 6 mps 749 mmHg 42%
    17:00 +34°C° 0 mm 6 mps 749 mmHg 46%
    18:00 +33°C° 0 mm 6 mps 749 mmHg 50%
    19:00 +32°C° 0 mm 7 mps 750 mmHg 56%
    20:00 +32°C° 0 mm 7 mps 751 mmHg 61%
    21:00 +31°C° 0 mm 8 mps 751 mmHg 67%
    22:00 +29°C° 0 mm 8 mps 751 mmHg 69%
    23:00 +28°C° 0 mm 8 mps 751 mmHg 71%

    Tomorrow, 4 April, Saturday

    Time Temperature Precipitation Wind Pressure Humidity
    00:00 +27°C° 0 mm 7 mps 751 mmHg 74%
    01:00 +27°C° 0 mm 7 mps 751 mmHg 75%
    02:00 +27°C° 0 mm 7 mps 750 mmHg 77%
    03:00 +26°C° 0 mm 7 mps 750 mmHg 78%
    04:00 +26°C° 0 mm 7 mps 751 mmHg 79%
    05:00 +26°C° 0 mm 7 mps 751 mmHg 80%
    06:00 +26°C° 0 mm 7 mps 751 mmHg 80%
    07:00 +27°C° 0 mm 7 mps 752 mmHg 73%
    08:00 +29°C° 0 mm 7 mps 752 mmHg 65%
    09:00 +31°C° 0 mm 8 mps 753 mmHg 58%
    10:00 +32°C° 0 mm 7 mps 752 mmHg 53%
    11:00 +34°C° 0 mm 7 mps 751 mmHg 49%
    12:00 +35°C° 0 mm 6 mps 751 mmHg 45%
    13:00 +35°C° 0 mm 6 mps 750 mmHg 42%
    14:00 +36°C° 0 mm 6 mps 749 mmHg 40%
    15:00 +38°C° 0 mm 6 mps 748 mmHg 37%
    16:00 +36°C° 0 mm 6 mps 748 mmHg 40%
    17:00 +35°C° 0 mm 6 mps 748 mmHg 43%
    18:00 +33°C° 0 mm 5 mps 749 mmHg 46%
    19:00 +32°C° 0 mm 6 mps 749 mmHg 53%
    20:00 +31°C° 0 mm 8 mps 750 mmHg 59%
    21:00 +29°C° 0 mm 9 mps 751 mmHg 65%
    22:00 +29°C° 0 mm 8 mps 751 mmHg 69%
    23:00 +28°C° 0 mm 8 mps 751 mmHg 73%

    Day after tomorrow, 5 April, Sunday

    Time Temperature Precipitation Wind Pressure Humidity
    00:00 +27°C° 0 mm 7 mps 751 mmHg 77%
    01:00 +27°C° 0 mm 7 mps 751 mmHg 78%
    02:00 +27°C° 0 mm 7 mps 750 mmHg 79%
    03:00 +26°C° 0 mm 7 mps 750 mmHg 80%
    04:00 +26°C° 0 mm 7 mps 751 mmHg 81%
    05:00 +26°C° 0 mm 7 mps 751 mmHg 82%
    06:00 +26°C° 0 mm 7 mps 751 mmHg 84%
    07:00 +27°C° 0 mm 7 mps 752 mmHg 76%
    08:00 +29°C° 0 mm 7 mps 752 mmHg 69%
    09:00 +30°C° 0 mm 7 mps 753 mmHg 61%
    10:00 +33°C° 0 mm 7 mps 752 mmHg 55%
    11:00 +34°C° 0 mm 7 mps 752 mmHg 49%
    12:00 +35°C° 0 mm 6 mps 751 mmHg 44%
    13:00 +36°C° 0 mm 6 mps 750 mmHg 42%
    14:00 +36°C° 0 mm 6 mps 750 mmHg 40%
    15:00 +38°C° 0 mm 6 mps 749 mmHg 38%
    16:00 +36°C° 0 mm 6 mps 749 mmHg 44%
    17:00 +34°C° 0 mm 6 mps 749 mmHg 49%
    18:00 +33°C° 0 mm 6 mps 749 mmHg 55%
    19:00 +32°C° 0 mm 8 mps 750 mmHg 60%
    20:00 +31°C° 0 mm 9 mps 751 mmHg 64%
    21:00 +29°C° 0 mm 10 mps 752 mmHg 69%
    22:00 +28°C° 0 mm 9 mps 752 mmHg 71%
    23:00 +28°C° 0 mm 9 mps 752 mmHg 73%

    6 April, Monday

    Time Temperature Precipitation Wind Pressure Humidity
    00:00 +27°C° 0 mm 8 mps 752 mmHg 75%
    01:00 +27°C° 0 mm 8 mps 752 mmHg 77%
    02:00 +26°C° 0 mm 8 mps 752 mmHg 79%
    03:00 +26°C° 0 mm 8 mps 752 mmHg 81%
    04:00 +26°C° 0 mm 8 mps 752 mmHg 81%
    05:00 +26°C° 0 mm 8 mps 752 mmHg 80%
    06:00 +26°C° 0 mm 8 mps 752 mmHg 80%
    07:00 +27°C° 0 mm 8 mps 753 mmHg 74%
    08:00 +29°C° 0 mm 8 mps 753 mmHg 68%
    09:00 +31°C° 0 mm 8 mps 754 mmHg 63%
    10:00 +32°C° 0 mm 8 mps 753 mmHg 56%
    11:00 +34°C° 0 mm 7 mps 752 mmHg 49%
    12:00 +36°C° 0 mm 7 mps 752 mmHg 42%
    13:00 +36°C° 0 mm 7 mps 751 mmHg 43%
    14:00 +37°C° 0 mm 8 mps 750 mmHg 45%
    15:00 +37°C° 0 mm 8 mps 750 mmHg 46%
    16:00 +35°C° 0 mm 8 mps 750 mmHg 51%
    17:00 +34°C° 0 mm 8 mps 750 mmHg 56%
    18:00 +33°C° 0 mm 8 mps 750 mmHg 61%
    19:00 +32°C° 0 mm 8 mps 751 mmHg 65%
    20:00 +31°C° 0 mm 9 mps 752 mmHg 68%
    21:00 +31°C° 0 mm 9 mps 752 mmHg 72%
    22:00 +29°C° 0 mm 9 mps 752 mmHg 75%
    23:00 +29°C° 0 mm 9 mps 752 mmHg 77%

    7 April, Tuesday

    Time Temperature Precipitation Wind Pressure Humidity
    00:00 +28°C° 0 mm 8 mps 752 mmHg 79%
    01:00 +28°C° 0 mm 9 mps 752 mmHg 80%
    02:00 +28°C° 0 mm 9 mps 752 mmHg 81%
    03:00 +28°C° 0 mm 9 mps 751 mmHg 81%
    04:00 +28°C° 0 mm 10 mps 752 mmHg 81%
    05:00 +28°C° 0 mm 10 mps 752 mmHg 81%
    06:00 +28°C° 0 mm 10 mps 752 mmHg 80%
    07:00 +29°C° 0 mm 10 mps 752 mmHg 75%
    08:00 +31°C° 0 mm 10 mps 753 mmHg 69%
    09:00 +32°C° 0 mm 10 mps 753 mmHg 64%
    10:00 +34°C° 0 mm 10 mps 753 mmHg 59%
    11:00 +35°C° 0 mm 9 mps 752 mmHg 54%
    12:00 +37°C° 0 mm 8 mps 752 mmHg 50%
    13:00 +37°C° 0 mm 9 mps 751 mmHg 49%
    14:00 +38°C° 0 mm 9 mps 750 mmHg 48%
    15:00 +38°C° 0 mm 9 mps 749 mmHg 47%
    16:00 +37°C° 0 mm 9 mps 750 mmHg 51%
    17:00 +35°C° 0 mm 9 mps 750 mmHg 56%
    18:00 +34°C° 0 mm 10 mps 750 mmHg 60%
    19:00 +33°C° 0 mm 10 mps 751 mmHg 65%
    20:00 +32°C° 0 mm 10 mps 752 mmHg 69%
    21:00 +31°C° 0 mm 10 mps 752 mmHg 73%
    22:00 +29°C° 0 mm 10 mps 752 mmHg 74%
    23:00 +29°C° 0 mm 10 mps 752 mmHg 74%

    8 April, Wednesday

    Time Temperature Precipitation Wind Pressure Humidity
    00:00 +29°C° 0 mm 10 mps 752 mmHg 74%
    01:00 +29°C° 0 mm 10 mps 752 mmHg 75%
    02:00 +29°C° 0 mm 10 mps 752 mmHg 76%
    03:00 +28°C° 0 mm 10 mps 751 mmHg 76%
    04:00 +28°C° 0.1 mm 10 mps 751 mmHg 77%
    05:00 +28°C° 0.1 mm 10 mps 752 mmHg 78%
    06:00 +28°C° 0.1 mm 10 mps 752 mmHg 79%
    07:00 +29°C° 0.1 mm 10 mps 752 mmHg 74%
    08:00 +31°C° 0.1 mm 9 mps 752 mmHg 70%
    09:00 +32°C° 0.1 mm 9 mps 753 mmHg 65%
    10:00 +33°C° 0 mm 9 mps 752 mmHg 60%
    11:00 +35°C° 0 mm 8 mps 752 mmHg 54%
    12:00 +37°C° 0 mm 8 mps 751 mmHg 48%
    13:00 +38°C° 0 mm 8 mps 750 mmHg 47%
    14:00 +38°C° 0 mm 8 mps 749 mmHg 46%
    15:00 +38°C° 0 mm 9 mps 749 mmHg 45%
    16:00 +37°C° 0 mm 9 mps 749 mmHg 49%
    17:00 +35°C° 0 mm 9 mps 749 mmHg 52%
    18:00 +34°C° 0 mm 9 mps 750 mmHg 56%
    19:00 +33°C° 0 mm 9 mps 750 mmHg 60%
    20:00 +32°C° 0 mm 8 mps 751 mmHg 65%
    21:00 +31°C° 0 mm 8 mps 752 mmHg 69%
    22:00 +31°C° 0 mm 8 mps 752 mmHg 72%
    23:00 +29°C° 0 mm 8 mps 752 mmHg 76%
    Show more